Wind_Speed
12 11 11 12 12 13 13 13 13 15 16 17 18 19 20 21 21 21 22 23 25 26 28 29 32 34 35 37 38 39 40 40 41 41 40 39 38 37 36 34 33 35 34 34
7 8 10 10 10 11 11 10 11 14 14 15 16 17 18 19 20 21 23 24 26 27 29 30 32 33 35 36 38 39 40 41 41 39 38 37 37 37 35 32 30 30 30 30
5 7 8 8 8 8 9 8 10 12 13 13 14 15 17 18 20 21 23 24 26 27 28 30 31 33 35 36 38 39 38 38 37 37 37 36 36 35 33 32 31 29 27 28
4 6 6 6 7 7 8 10 10 11 11 12 13 13 18 18 19 20 21 23 25 26 28 30 32 33 35 36 37 37 38 38 37 37 37 38 38 36 35 34 33 31 30 31
6 6 6 7 8 8 9 10 10 10 10 11 12 11 19 18 19 20 21 23 24 26 28 30 32 33 34 35 36 37 38 39 40 39 40 39 39 39 38 37 35 34 33 32
6 7 7 8 9 9 9 10 10 10 10 11 14 14 19 20 21 22 24 25 27 28 30 32 34 36 37 38 39 40 41 41 41 42 42 42 42 42 42 41 40 39 37 36
5 8 8 8 9 9 9 9 9 9 10 13 18 18 19 20 22 25 26 28 29 31 32 34 36 38 40 41 42 43 43 43 43 43 43 44 44 45 45 45 44 44 43 42
5 8 9 8 8 9 9 9 9 9 11 14 19 19 19 22 24 26 28 29 31 33 35 36 38 40 41 43 44 44 44 44 45 45 45 45 46 46 47 47 47 48 48 48
5 8 8 8 8 9 9 9 9 11 12 14 17 20 20 23 25 28 29 31 33 35 37 38 40 41 42 42 43 44 45 45 45 46 47 47 48 48 48 49 50 51 52 52
5 7 8 8 9 9 9 10 10 12 13 14 17 22 24 26 27 30 32 34 36 37 38 39 40 41 42 43 44 45 45 45 46 47 49 50 51 52 52 52 52 52 53 55
5 7 9 9 9 10 10 11 12 13 14 16 18 23 25 27 30 32 34 36 37 38 39 39 40 41 42 44 45 45 46 47 49 50 51 52 53 53 54 54 53 53 53 54
6 7 8 9 10 11 12 13 13 15 17 18 21 26 26 29 32 33 35 36 37 38 39 40 40 41 42 43 44 46 48 49 51 52 53 53 54 54 54 54 54 54 54 55
6 7 8 11 12 12 13 14 15 16 18 20 22 27 29 31 33 35 36 37 37 38 39 39 40 42 43 44 45 46 48 50 51 52 53 53 53 53 53 53 53 53 54 54
6 7 7 8 12 14 14 15 17 18 19 22 24 27 30 33 34 36 36 37 37 38 39 40 41 42 43 45 46 47 48 50 51 51 51 51 51 50 50 50 51 51 52 52
7 8 10 11 13 14 15 17 18 19 21 24 26 29 31 34 35 36 36 37 38 39 40 41 41 42 44 45 46 47 48 49 50 49 49 49 48 47 47 48 48 48 49 49
8 9 11 12 14 15 16 17 19 21 23 25 28 30 33 35 36 37 37 38 40 40 40 40 41 43 44 45 46 47 48 48 48 48 47 46 45 44 43 43 43 44 44 45
8 10 11 13 15 16 17 19 20 22 25 27 30 32 34 35 36 37 38 39 41 40 40 41 41 43 44 45 46 47 47 47 47 46 45 43 42 41 40 39 38 38 39 39
9 10 12 14 16 17 18 20 21 23 26 28 31 33 36 37 38 38 39 40 41 40 40 41 42 43 44 46 46 46 47 46 45 45 43 41 39 38 36 35 34 34 34 34
10 11 13 15 17 18 19 21 23 24 26 30 32 35 37 37 37 39 40 41 41 41 41 42 43 44 45 45 46 46 46 45 44 43 40 39 37 34 32 30 30 28 28 28
11 12 14 15 16 19 21 22 24 27 29 33 35 37 39 39 37 38 40 40 40 40 41 42 43 44 45 45 46 46 45 44 44 42 39 37 35 32 30 27 24 22 21 22
12 13 14 16 17 19 21 23 26 29 32 34 36 38 40 40 40 40 40 40 40 40 40 41 43 44 45 45 46 46 45 44 43 41 38 35 32 30 27 23 20 18 17 17
13 14 14 16 17 20 22 24 26 29 32 35 37 39 40 40 40 41 41 40 40 40 40 41 43 44 45 45 46 45 44 43 42 40 36 33 31 28 24 20 16 14 13 13
13 14 15 16 17 20 22 24 27 30 32 35 37 39 40 40 40 41 41 40 40 40 40 41 43 44 44 45 45 45 44 43 42 39 35 31 29 25 21 17 13 10 9 9
13 14 15 16 18 20 22 24 27 30 33 35 38 39 41 41 41 41 42 40 40 40 40 41 42 43 43 43 44 44 43 42 42 39 34 30 26 23 20 16 12 9 6 4
14 15 16 16 18 20 22 25 28 31 33 36 38 40 41 41 41 42 42 41 41 40 40 41 42 42 42 42 43 43 42 41 40 38 34 30 26 22 19 15 12 9 5 2
15 15 16 17 19 21 22 25 28 31 33 36 38 40 41 42 42 42 42 42 41 40 40 40 41 41 41 41 42 42 41 40 39 37 33 30 26 23 19 16 13 10 8 5
Wind_Direction
266 267 265 267 270 270 274 278 279 281 285 286 285 284 284 284 283 282 281 279 277 276 275 275 275 276 277 280 282 284 286 287 286 285 283 284 283 283 284 283 276 270 269 267
263 265 265 271 275 277 282 284 286 288 289 289 288 287 287 285 284 283 282 281 280 280 279 281 281 280 282 283 284 286 287 288 287 285 283 282 281 281 284 284 282 275 269 265
237 255 271 277 283 288 290 285 284 290 298 299 299 301 296 291 288 287 286 284 284 284 284 285 286 287 286 286 287 287 288 290 291 287 284 283 283 284 283 282 281 277 272 265
254 268 274 281 286 289 285 286 289 297 305 300 303 301 301 301 298 295 293 291 290 290 289 289 289 289 291 290 289 289 290 290 291 289 286 284 284 283 284 284 282 279 274 265
258 268 274 278 284 284 274 286 295 299 300 299 302 299 295 301 301 300 298 297 296 295 294 294 294 293 293 293 292 293 293 292 290 289 287 285 284 283 282 282 280 278 272 264
279 280 277 281 289 289 292 298 304 310 309 293 292 296 292 300 300 300 299 299 298 297 296 295 295 296 294 294 295 295 294 293 292 290 289 286 284 283 281 280 277 275 270 265
310 305 296 292 293 295 300 308 311 306 299 286 291 295 295 300 301 302 302 301 299 298 297 297 297 297 296 296 296 295 294 293 292 290 287 285 283 281 279 277 275 272 268 264
295 293 300 302 298 301 304 300 291 287 290 294 299 300 304 305 306 307 306 304 301 300 300 299 299 298 298 297 297 296 295 294 292 290 288 285 282 280 277 275 273 271 268 264
298 301 308 308 310 308 308 306 300 303 303 307 304 309 310 309 310 309 308 307 307 306 304 303 302 301 301 299 298 297 296 295 294 291 289 287 284 281 278 275 273 270 268 265
325 322 321 321 318 316 314 316 315 313 309 309 308 309 314 313 313 312 311 310 310 309 308 307 306 305 304 302 301 299 298 296 294 293 291 288 285 282 279 275 272 269 267 264
335 333 326 325 324 325 327 328 326 324 323 320 313 310 318 316 315 314 313 313 313 312 310 309 308 308 307 305 304 302 300 299 297 295 293 290 287 284 280 276 273 269 266 263
340 337 331 333 333 332 333 334 334 329 326 324 321 316 321 319 318 317 317 316 316 315 314 313 312 311 310 310 308 306 305 303 301 299 296 293 289 285 282 278 274 270 267 264
343 346 349 338 338 339 338 338 336 333 330 329 326 321 324 323 322 321 321 321 319 318 317 316 315 314 313 312 311 310 308 306 304 302 299 296 292 288 284 280 276 272 269 265
353 355 352 334 333 337 339 338 336 335 334 331 329 327 327 326 325 325 324 323 322 322 321 319 318 317 316 315 313 312 311 309 307 305 302 299 295 290 286 281 277 273 269 266
355 353 347 342 339 338 338 338 338 338 337 335 334 332 331 329 328 327 327 327 326 325 324 322 321 320 319 318 317 316 315 313 311 309 306 302 298 293 288 283 279 274 270 267
345 345 343 342 340 339 339 341 341 340 340 339 337 335 334 333 331 330 331 331 330 328 327 326 325 324 323 322 321 320 319 317 316 313 311 307 303 298 293 286 281 275 271 267
343 344 345 344 344 341 343 344 343 342 341 341 340 338 337 335 333 333 334 333 333 332 331 330 329 329 328 326 325 324 322 321 319 318 316 313 309 304 297 291 285 277 271 267
344 345 345 344 344 347 344 344 344 343 342 342 341 341 340 339 337 336 336 335 335 334 334 334 333 333 332 331 330 328 327 325 324 322 320 317 314 309 302 296 289 280 271 265
342 343 344 345 345 343 345 345 345 346 345 344 344 344 343 342 340 338 337 337 337 337 337 337 337 336 336 335 334 333 332 331 329 327 325 322 319 315 309 302 294 284 272 262
339 340 342 344 344 342 343 346 346 346 347 348 347 346 345 344 343 341 339 338 339 339 340 340 340 340 339 338 338 337 336 335 333 332 330 327 325 321 314 307 298 286 276 263
336 339 340 340 341 341 343 346 347 349 349 348 347 347 346 346 345 343 342 341 341 341 342 343 343 343 342 342 342 341 340 339 338 336 334 333 331 328 323 315 303 291 278 265
332 334 337 338 340 341 344 347 348 349 348 348 347 347 347 347 346 345 344 343 343 344 344 344 345 345 345 345 345 345 345 344 344 342 339 338 336 334 330 324 314 301 283 267
326 329 332 335 337 341 345 347 348 348 348 348 348 348 348 348 347 346 346 345 345 345 346 346 347 347 347 348 349 349 349 349 349 348 346 345 344 343 340 336 329 318 301 277
321 324 328 331 336 340 344 346 347 348 348 349 349 349 349 349 349 348 348 348 347 347 347 348 348 349 350 351 352 353 353 354 354 355 354 355 355 355 354 353 348 340 326 298
317 322 326 330 334 338 341 344 346 348 348 349 350 349 350 350 350 350 350 350 349 349 349 350 351 352 353 354 355 356 357 359 360 1 2 4 5 5 6 8 9 11 14 11
314 319 324 328 333 337 340 342 345 347 348 349 350 350 351 351 351 351 352 352 351 351 351 352 353 354 355 357 358 359 1 2 3 5 8 11 14 16 18 20 23 29 36 47
Height
5868 5870 5871 5871 5871 5871 5872 5872 5872 5870 5869 5868 5867 5866 5864 5863 5862 5861 5860 5859 5858 5856 5855 5854 5852 5850 5848 5846 5843 5840 5837 5833 5829 5826 5823 5820 5817 5814 5811 5809 5807 5806 5805 5805
5867 5868 5867 5867 5867 5868 5868 5869 5869 5867 5866 5864 5863 5861 5860 5858 5857 5856 5855 5853 5852 5850 5849 5847 5845 5842 5839 5837 5835 5831 5828 5824 5820 5817 5814 5811 5808 5805 5804 5802 5799 5797 5796 5796
5866 5867 5865 5865 5866 5866 5866 5867 5866 5865 5862 5861 5860 5858 5856 5854 5852 5851 5849 5847 5846 5844 5842 5840 5837 5834 5831 5829 5826 5822 5819 5815 5812 5809 5806 5803 5800 5797 5796 5794 5792 5790 5788 5789
5864 5864 5864 5864 5864 5864 5865 5863 5862 5861 5860 5860 5859 5858 5853 5850 5848 5846 5844 5842 5840 5837 5835 5832 5829 5826 5823 5820 5817 5813 5810 5807 5804 5801 5798 5795 5792 5789 5788 5786 5785 5783 5782 5782
5863 5862 5862 5862 5862 5861 5861 5860 5859 5858 5857 5857 5856 5855 5850 5847 5844 5842 5839 5837 5834 5831 5828 5825 5822 5818 5815 5811 5808 5804 5801 5797 5794 5791 5788 5785 5782 5780 5779 5777 5776 5775 5775 5775
5861 5861 5860 5860 5859 5858 5858 5857 5856 5856 5856 5855 5852 5851 5847 5843 5840 5838 5834 5831 5828 5825 5822 5818 5814 5810 5806 5802 5799 5795 5791 5787 5784 5781 5777 5775 5773 5770 5769 5767 5766 5765 5766 5766
5861 5860 5858 5858 5857 5857 5856 5856 5856 5856 5855 5852 5848 5846 5843 5839 5836 5833 5829 5826 5822 5818 5814 5810 5806 5802 5797 5793 5788 5784 5781 5777 5773 5770 5766 5764 5761 5759 5757 5755 5754 5754 5754 5754
5861 5861 5857 5856 5855 5855 5854 5853 5854 5853 5852 5849 5844 5841 5839 5834 5831 5827 5823 5819 5815 5811 5806 5802 5797 5793 5788 5783 5778 5773 5769 5765 5761 5757 5754 5751 5748 5746 5744 5742 5741 5740 5739 5740
5859 5858 5856 5854 5853 5853 5851 5850 5849 5848 5847 5845 5842 5837 5833 5830 5826 5822 5817 5812 5808 5803 5798 5793 5787 5782 5777 5772 5767 5762 5757 5752 5748 5744 5740 5737 5734 5731 5729 5727 5726 5724 5724 5723
5857 5856 5854 5853 5852 5850 5849 5848 5847 5845 5843 5842 5839 5833 5829 5824 5820 5816 5810 5805 5800 5795 5789 5783 5777 5772 5766 5760 5755 5750 5744 5739 5734 5730 5725 5721 5717 5714 5711 5710 5708 5707 5706 5706
5855 5855 5854 5852 5850 5848 5847 5846 5843 5841 5839 5837 5834 5831 5825 5819 5815 5809 5804 5798 5792 5786 5780 5774 5768 5761 5755 5748 5742 5736 5731 5725 5719 5714 5709 5704 5699 5695 5692 5690 5689 5688 5688 5688
5854 5854 5852 5850 5848 5846 5844 5843 5841 5839 5835 5832 5829 5827 5819 5813 5808 5803 5797 5790 5784 5777 5771 5764 5757 5751 5744 5737 5730 5724 5717 5710 5703 5696 5690 5685 5680 5675 5672 5669 5668 5668 5667 5667
5853 5852 5851 5849 5848 5845 5842 5839 5837 5835 5832 5828 5825 5822 5813 5807 5801 5795 5789 5782 5776 5769 5762 5755 5748 5741 5733 5726 5719 5711 5703 5695 5687 5679 5672 5666 5660 5655 5651 5649 5647 5646 5646 5646
5852 5851 5851 5850 5846 5842 5840 5837 5834 5832 5828 5824 5820 5815 5808 5801 5795 5788 5782 5775 5768 5761 5753 5746 5738 5730 5723 5715 5706 5698 5689 5680 5672 5663 5655 5648 5641 5635 5631 5628 5626 5625 5625 5625
5851 5850 5848 5846 5843 5840 5838 5835 5831 5828 5824 5820 5815 5809 5802 5795 5788 5782 5775 5768 5760 5752 5745 5737 5729 5720 5712 5703 5694 5685 5676 5666 5657 5647 5639 5630 5623 5616 5611 5608 5605 5604 5604 5605
5850 5848 5846 5844 5841 5838 5836 5832 5828 5824 5820 5815 5810 5804 5797 5789 5782 5775 5767 5760 5752 5744 5736 5728 5719 5711 5702 5692 5683 5673 5663 5652 5642 5632 5623 5614 5606 5600 5594 5590 5587 5586 5585 5585
5848 5847 5845 5842 5839 5836 5833 5830 5825 5821 5816 5811 5805 5800 5792 5784 5776 5769 5761 5753 5744 5736 5728 5719 5710 5701 5691 5682 5671 5661 5650 5640 5629 5619 5609 5600 5592 5585 5579 5574 5571 5569 5568 5568
5847 5845 5843 5840 5838 5834 5833 5827 5823 5818 5813 5807 5801 5794 5786 5778 5770 5762 5754 5745 5737 5729 5720 5711 5702 5692 5682 5672 5661 5650 5639 5628 5618 5607 5597 5588 5579 5572 5565 5560 5557 5554 5553 5554
5845 5843 5841 5838 5835 5832 5829 5824 5819 5815 5810 5804 5797 5789 5781 5773 5765 5756 5748 5739 5730 5722 5713 5704 5694 5684 5674 5663 5652 5641 5630 5619 5608 5597 5587 5578 5569 5561 5555 5550 5545 5543 5541 5542
5843 5841 5839 5836 5833 5830 5827 5821 5816 5812 5805 5799 5791 5784 5776 5768 5761 5753 5743 5734 5725 5716 5707 5697 5688 5677 5667 5656 5645 5633 5622 5610 5599 5588 5578 5569 5560 5552 5546 5541 5537 5534 5533 5533
5841 5839 5836 5833 5830 5827 5823 5818 5813 5808 5803 5794 5787 5779 5771 5762 5755 5747 5737 5728 5719 5710 5701 5692 5682 5671 5661 5649 5638 5626 5614 5603 5592 5581 5571 5561 5553 5545 5539 5533 5530 5528 5527 5527
5839 5836 5834 5831 5827 5826 5819 5814 5810 5805 5798 5791 5783 5776 5767 5759 5750 5741 5732 5723 5715 5706 5696 5687 5677 5666 5655 5644 5632 5620 5609 5597 5585 5574 5564 5556 5547 5539 5533 5528 5525 5523 5522 5522
5836 5834 5831 5828 5826 5821 5816 5811 5806 5801 5794 5788 5780 5772 5764 5755 5747 5738 5729 5719 5710 5701 5692 5682 5672 5662 5651 5639 5628 5616 5605 5593 5581 5570 5560 5551 5543 5536 5530 5526 5522 5520 5519 5518
5833 5830 5827 5824 5821 5817 5813 5808 5803 5798 5791 5784 5777 5769 5761 5752 5743 5734 5725 5715 5706 5697 5688 5678 5668 5658 5647 5636 5624 5613 5601 5590 5579 5567 5557 5549 5541 5535 5529 5525 5521 5519 5518 5517
5829 5827 5824 5821 5818 5814 5810 5805 5800 5794 5788 5781 5774 5766 5757 5749 5740 5730 5721 5712 5703 5693 5684 5674 5664 5654 5644 5633 5622 5611 5600 5589 5578 5567 5558 5549 5542 5535 5530 5526 5523 5520 5519 5518
5825 5823 5821 5818 5814 5811 5807 5802 5796 5791 5785 5778 5771 5762 5754 5745 5736 5727 5718 5709 5700 5690 5681 5671 5662 5652 5642 5632 5621 5611 5600 5589 5579 5569 5559 5551 5544 5538 5533 5529 5525 5523 5521 5520